Tracking 28790 objects as of 19-Apr-2024
HD Live streaming from Space Station
objects crossing your sky now

FENGYUN 1C DEB

Track FENGYUN 1C DEB now!
10-day predictions


NORAD ID: 31074
Int'l Code: 1999-025BFU
Perigee: 809.7 km
Apogee: 954.6 km
Inclination: 99.0 °
Period: 102.5 minutes
Semi major axis: 7253 km
RCS: 0.0165 m2 (small)
Launch date: May 10, 1999
Source: People's Republic of China (PRC)
Launch site: Taiyaun Space Center, China (TSC)

Note: This is SATELLITE DEBRIS
Your satellite tracking list
Your tracking list is empty




NASA's NSSDC Master Catalog

Two Line Element Set (TLE):
1 31074U 99025BFU 24108.67213376  .00007415  00000-0  43907-2 0  9992
2 31074  98.9696  19.6921 0099898 161.6752 198.8056 14.05443266870651
Source of the keplerian elements: AFSPC